This is the latest recevied weather packets stored in our database for station/object OE3APM-13. If no packets are shown the sender has not sent any weather packets the latest 10 day(s).
| Time | Temp. | Humidity | Pressure | Rain* | Wind** | Luminosity | Snow |
|---|---|---|---|---|---|---|---|
| 1777718044 | 21.67° C | 32% | 1023.7 hPa | 0 mm | - | 853 W/m² | - |
| 1777717743 | 21.67° C | 35% | 1023.7 hPa | 0 mm | - | 854 W/m² | - |
| 1777717441 | 21.67° C | 35% | 1024 hPa | 0 mm | - | 854 W/m² | - |
| 1777717134 | 21.67° C | 35% | 1024.1 hPa | 0 mm | - | 849 W/m² | - |
| 1777716829 | 21.67° C | 34% | 1024.1 hPa | 0 mm | - | 847 W/m² | - |
| 1777716518 | 21.11° C | 34% | 1024.2 hPa | 0 mm | - | 846 W/m² | - |
| 1777716212 | 21.11° C | 36% | 1024.1 hPa | 0 mm | - | 849 W/m² | - |
| 1777715911 | 21.11° C | 36% | 1024.3 hPa | 0 mm | - | 840 W/m² | - |
| 1777715612 | 21.11° C | 37% | 1024.3 hPa | 0 mm | - | 844 W/m² | - |
| 1777715310 | 21.11° C | 31% | 1024.3 hPa | 0 mm | - | 838 W/m² | - |
| 1777715009 | 21.11° C | 35% | 1024.4 hPa | 0 mm | - | 835 W/m² | - |
| 1777714711 | 21.11° C | 34% | 1024.5 hPa | 0 mm | - | 831 W/m² | - |
| 1777714410 | 21.11° C | 35% | 1024.6 hPa | 0 mm | - | 826 W/m² | - |
| 1777714110 | 21.11° C | 35% | 1024.7 hPa | 0 mm | - | 824 W/m² | - |
| 1777713810 | 20.56° C | 36% | 1024.7 hPa | 0 mm | - | 819 W/m² | - |
| 1777713506 | 20.56° C | 35% | 1024.7 hPa | 0 mm | - | 810 W/m² | - |
| 1777713199 | 20.56° C | 37% | 1024.9 hPa | 0 mm | - | 805 W/m² | - |
| 1777712899 | 20° C | 38% | 1024.9 hPa | 0 mm | - | 798 W/m² | - |
| 1777712599 | 20° C | 36% | 1024.9 hPa | 0 mm | - | 788 W/m² | - |
| 1777712299 | 20° C | 38% | 1024.9 hPa | 0 mm | - | 779 W/m² | - |
| 1777711999 | 20° C | 36% | 1025 hPa | 0 mm | - | 775 W/m² | - |
| 1777711700 | 20° C | 36% | 1025 hPa | 0 mm | - | 761 W/m² | - |
| 1777711399 | 20° C | 39% | 1025 hPa | 0 mm | - | 756 W/m² | - |
| 1777711099 | 19.44° C | 38% | 1025 hPa | 0 mm | - | 749 W/m² | - |
| 1777710799 | 19.44° C | 38% | 1025 hPa | 0 mm | - | 738 W/m² | - |
* Rain latest hour (hover to see other rain measurements)
** Current wind speed in m/s (hover to see current wind gust speed)